Lexington Weather

Lexington, Massachusetts, USA

34°F
10/30/2020 6:39am 
  • Lexington Conditions: Light snow, Mist, Overcast
  • Temperature: 34.2°F / 1.2°CColder 1.2°F than last hour.
  • Dew Point: 33.4°FDecreased 1.3°Fsince last hour.
  • Relative Humidity: 97
  • Wind: Wind from N N 2 mph, 10-min avg: 2 mph, gust: 8 mph
  • Barometer: 29.76 in Steady
  • Visibility: 5 miles
  • Rain Today: 0.09 in
  •   
Southeast Middlesex County - Winter Weather Advisory
 - SEE ALL NEARBY ALERTS -

Regional Weather Roundup
for Boston / Norton, MA

        
000
ASUS41 KBOX 271704
RWRBOX

REGIONAL WEATHER ROUNDUP
NATIONAL WEATHER SERVICE BOSTON/NORTON MA
100 PM EDT TUE OCT 27 2020

NOTE:  "FAIR" INDICATES FEW OR NO CLOUDS BELOW 12,000 FEET WITH NO 
SIGNIFICANT WEATHER AND/OR OBSTRUCTIONS TO VISIBILITY.

MAZALL-271800-
EASTERN MASSACHUSETTS
  
CITY           SKY/WX    TMP DP  RH WIND       PRES   REMARKS
BOSTON         PTSUNNY   52  37  56 N9        30.15F                  
BEVERLY        PTSUNNY   52  40  63 NW10      30.14F                  
LAWRENCE       PTSUNNY   50  40  68 NW9       30.18S                  
BEDFORD        PTSUNNY   51  38  60 NW12      30.16S                  
BLUE HILL        N/A     51  38  60 VRB7      30.13F                  
NORWOOD        CLOUDY    55  38  52 NW7       30.15F                  
MARSHFIELD     PTSUNNY   55  43  62 VRB6G13   30.14S                  
PLYMOUTH       PTSUNNY   57  42  57 VRB7      30.13F                  
TAUNTON        CLOUDY    57  37  47 NW8       30.14F                  
NEW BEDFORD    NOT AVBL                                               
$$

MAZALL-271800-
CAPE COD AND THE ISLANDS
  
CITY           SKY/WX    TMP DP  RH WIND       PRES   REMARKS
FALMOUTH       MOSUNNY   55  45  67 NE10G16   30.13F                  
HYANNIS        CLOUDY    57  48  72 N13       30.11F                  
CHATHAM        CLOUDY    56  45  66 NE7       30.13F                  
PROVINCETOWN   CLOUDY    53  45  74 N10       30.14F                  
NANTUCKET      CLOUDY    57  48  72 N13       30.11F                  
MARTHAS VNYRD  PTSUNNY   60  46  59 N9        30.12F                  
$$
 
MAZALL-271800-
CENTRAL AND WESTERN MASSACHUSETTS
  
CITY           SKY/WX    TMP DP  RH WIND       PRES   REMARKS
WORCESTER      CLOUDY    49  39  68 VRB7      30.15F                  
FITCHBURG      PTSUNNY   51  39  63 NW10      30.17S                  
ORANGE         CLOUDY    49  38  65 N10       30.17F                  
SPRINGFIELD    PTSUNNY   53  40  61 N10       30.16F                  
WESTFIELD      CLOUDY    53  40  61 VRB6      30.17F                  
NORTH ADAMS    PTSUNNY   48  37  65 VRB6      30.20R                  
PITTSFIELD     CLOUDY    49  40  71 VRB5      30.16F                  
$$
 
RIZALL-271800-
RHODE ISLAND
  
CITY           SKY/WX    TMP DP  RH WIND       PRES   REMARKS
PROVIDENCE     CLOUDY    57  44  62 N10       30.14F                  
NEWPORT        CLOUDY    55  46  71 N12       30.13F                  
BLOCK ISLAND   CLOUDY    56  48  74 NE7       30.14F                  
SMITHFIELD     MOSUNNY   53  42  66 N9        30.14F                  
WESTERLY       PTSUNNY   61  46  57 MISG      30.13F                  
$$
 
CTZALL-271800-
CONNECTICUT
  
CITY           SKY/WX    TMP DP  RH WIND       PRES   REMARKS
BRADLEY INTL   PTSUNNY   54  40  59 N9        30.17F                  
HARTFORD       PTSUNNY   56  41  57 N9        30.17F                  
BRIDGEPORT     MOSUNNY   60  42  51 N8        30.16F                  
DANBURY        SUNNY     55  37  50 MISG      30.18F                  
GROTON         CLOUDY    59  47  64 NW6       30.13F                  
NEW HAVEN      MOSUNNY   61  47  59 VRB3      30.15F                  
CHESTER        FAIR      59  43  55 NW8       30.15F                  
MERIDEN        PTSUNNY   58  42  55 N10       30.17F                  
WILLIMANTIC    CLOUDY    56  44  64 NW8       30.15F                  
OXFORD         PTSUNNY   54  43  66 N8        30.17F                  
$$

MEZ002-015-021-024-NHZ003-005-008-011-012-014-VTZ005-008-271800-
NORTHERN NEW ENGLAND
  
CITY           SKY/WX    TMP DP  RH WIND       PRES   REMARKS
PORTLAND ME    MOSUNNY   52  39  61 NW13      30.13F                  
BANGOR ME      PTSUNNY   47  31  53 N15G25    30.12F                  
CONCORD NH     MOSUNNY   50  35  56 NW12      30.16F                  
MANCHESTER NH  PTSUNNY   50  35  56 NW12      30.17S                  
NASHUA NH      CLOUDY    49  38  65 N8G17     30.18F                  
PORTSMOUTH NH  PTSUNNY   51  38  62 W9        30.13F                  
JAFFREY NH     CLOUDY    46  35  65 VRB6      30.16F                  
KEENE NH       PTSUNNY   48  38  68 CALM      30.17F                  
BURLINGTON VT  PTSUNNY   43  28  55 N9        30.22F                  
MT. WASHINGTON FOG       18  18 100 W37G46      N/A  VSB 1/16WCI  -4  
$$

NYZ052-076-271800-
EASTERN NEW YORK
  
CITY           SKY/WX    TMP DP  RH WIND       PRES   REMARKS
ALBANY         PTSUNNY   46  40  79 N3        30.20F                  
NEW YORK CITY  PTSUNNY   57  45  64 NW13      30.19R                  
$$
 
ANZALL-271800-
MARINE OBSERVATIONS
  
STATION/POSITION TIME  TEMP    WIND        PRES    VSBY  WAVE
                       AIR SEA DIR/SP/G                  HT/PER
                 (UTC) (F)     (DEG/KT/KT) (MB)    (MI)  (FT/S)
BOSTON BUOY      1650   51 56  330/ 10/ 12 1020.0F         2/ 7
BUZZARDS BAY     1600          360/ 10/ 12 1021.6F
NANTUCKET SOUND  1640      61   10/ 10/ 14   N/A
MASS BAY-STELLWA 1604   50 56  330/ 10/ 14 1020.4R  1 7/8  3/ 8
ISLE OF SHOALS   1600   48     310/ 10/ 11 1020.7R
S OF BLOCK IS    1626      62                N/A           4/ 8
$$

......................KEY.........................
  SKY/WX - SKY CONDITION/PRESENT WEATHER
  TMP    - TEMPERATURE IN FAHRENHEIT
  DWPT   - DEWPOINT IN FAHRENHEIT
  RH     - RELATIVE HUMIDITY IN PERCENT
  WIND   - DIRECTION AND SPEED IN MPH
  PRES   - MEAN SEA LEVEL PRESSURE IN INCHES OF HG
  WCI    - WIND CHILL INDEX
  VSB    - VISIBILITY IN MILES
  HX     - HEAT INDEX
  TC     - TEMPERATURE IN CELSIUS
  VRB    - VARIABLE WIND DIRECTION
  N/A    - NOT AVAILABLE
  
      

Other recent Regional Weather Roundups

Fri Oct 30, 6:04am

Fri Oct 30, 5:04am

Fri Oct 30, 4:04am

Fri Oct 30, 3:04am

Fri Oct 30, 2:04am

Fri Oct 30, 1:04am

Fri Oct 30, 12:04am

Thu Oct 29, 11:04pm

Thu Oct 29, 10:04pm

Thu Oct 29, 9:04pm

Thu Oct 29, 8:04pm

Thu Oct 29, 7:04pm

Thu Oct 29, 6:04pm

Thu Oct 29, 5:05pm

Thu Oct 29, 4:05pm

Thu Oct 29, 3:05pm

Thu Oct 29, 2:04pm

Thu Oct 29, 1:04pm

Thu Oct 29, 12:04pm

Thu Oct 29, 11:04am

Thu Oct 29, 10:04am

Thu Oct 29, 9:04am

Thu Oct 29, 8:04am

Thu Oct 29, 7:04am

Thu Oct 29, 6:04am

Thu Oct 29, 5:04am

Thu Oct 29, 4:04am

Thu Oct 29, 3:04am

Thu Oct 29, 2:04am

Thu Oct 29, 1:05am

Thu Oct 29, 12:04am

Wed Oct 28, 11:05pm

Wed Oct 28, 10:04pm

Wed Oct 28, 9:04pm

Wed Oct 28, 8:04pm

Wed Oct 28, 7:05pm

Wed Oct 28, 6:04pm

Wed Oct 28, 5:05pm

Wed Oct 28, 4:04pm

Wed Oct 28, 3:04pm

Wed Oct 28, 2:04pm

Wed Oct 28, 1:05pm

Wed Oct 28, 12:05pm

Wed Oct 28, 11:05am

Wed Oct 28, 10:04am

Wed Oct 28, 9:04am

Wed Oct 28, 8:04am

Wed Oct 28, 7:04am

Wed Oct 28, 6:04am

Wed Oct 28, 5:05am

Wed Oct 28, 4:04am

Wed Oct 28, 3:04am

Wed Oct 28, 2:04am

Wed Oct 28, 1:05am

Wed Oct 28, 12:04am

Tue Oct 27, 11:04pm

Tue Oct 27, 10:04pm

Tue Oct 27, 9:05pm

Tue Oct 27, 8:04pm

Tue Oct 27, 7:04pm

Tue Oct 27, 6:04pm

Tue Oct 27, 5:04pm

Tue Oct 27, 4:05pm

Tue Oct 27, 3:04pm

Tue Oct 27, 2:04pm

Tue Oct 27, 12:04pm

Tue Oct 27, 11:04am

Tue Oct 27, 10:04am

Tue Oct 27, 9:04am

Tue Oct 27, 8:04am

Tue Oct 27, 7:04am

Tue Oct 27, 6:04am

Tue Oct 27, 5:04am

Tue Oct 27, 4:04am

Tue Oct 27, 3:04am

Tue Oct 27, 2:05am

Tue Oct 27, 1:04am

Tue Oct 27, 12:04am

Mon Oct 26, 11:05pm

Mon Oct 26, 10:04pm

Mon Oct 26, 9:04pm

Mon Oct 26, 8:04pm

Mon Oct 26, 7:04pm

Mon Oct 26, 6:04pm

Mon Oct 26, 5:04pm

Mon Oct 26, 4:05pm

Mon Oct 26, 2:04pm

Mon Oct 26, 1:04pm

Mon Oct 26, 12:04pm

Mon Oct 26, 11:05am

Mon Oct 26, 10:04am

Mon Oct 26, 9:04am

Mon Oct 26, 8:04am

Mon Oct 26, 7:04am

Mon Oct 26, 6:04am

Mon Oct 26, 5:04am

Mon Oct 26, 4:04am

Mon Oct 26, 3:04am

Mon Oct 26, 2:04am

Mon Oct 26, 1:04am

Mon Oct 26, 12:04am

Sun Oct 25, 11:05pm

Sun Oct 25, 10:04pm

Sun Oct 25, 9:04pm

Sun Oct 25, 8:04pm

Sun Oct 25, 7:04pm

Sun Oct 25, 6:04pm

Sun Oct 25, 5:04pm

Sun Oct 25, 4:05pm

Sun Oct 25, 3:04pm

Sun Oct 25, 2:04pm

Sun Oct 25, 1:04pm

Sun Oct 25, 12:04pm

Sun Oct 25, 11:04am

Sun Oct 25, 10:04am

Sun Oct 25, 9:04am

Sun Oct 25, 8:04am

Sun Oct 25, 7:04am

Sun Oct 25, 6:04am

Sun Oct 25, 5:04am

Sun Oct 25, 4:04am

Sun Oct 25, 3:04am

Sun Oct 25, 2:04am

Sun Oct 25, 1:05am

Sun Oct 25, 12:04am

Sat Oct 24, 11:04pm

Sat Oct 24, 10:04pm

Sat Oct 24, 9:04pm

Sat Oct 24, 8:04pm

Sat Oct 24, 7:04pm

Sat Oct 24, 6:04pm

Sat Oct 24, 5:05pm

Sat Oct 24, 4:04pm

Sat Oct 24, 3:04pm

Sat Oct 24, 2:04pm

Sat Oct 24, 1:05pm

Sat Oct 24, 12:04pm

Sat Oct 24, 11:05am

Sat Oct 24, 10:05am

Sat Oct 24, 9:04am

Sat Oct 24, 8:04am

Sat Oct 24, 7:04am

Sat Oct 24, 6:04am

Sat Oct 24, 5:04am

Sat Oct 24, 4:04am

Sat Oct 24, 3:04am

Sat Oct 24, 2:04am

Sat Oct 24, 1:05am

Sat Oct 24, 12:04am

Fri Oct 23, 11:04pm

Fri Oct 23, 10:04pm

Fri Oct 23, 9:04pm

Fri Oct 23, 8:05pm

Fri Oct 23, 7:04pm

Fri Oct 23, 6:04pm

Fri Oct 23, 5:05pm

Fri Oct 23, 4:04pm

Fri Oct 23, 3:04pm

Fri Oct 23, 2:05pm

Fri Oct 23, 1:04pm

Fri Oct 23, 12:04pm

Fri Oct 23, 11:04am

Fri Oct 23, 10:04am

Fri Oct 23, 9:04am

Fri Oct 23, 8:04am

Fri Oct 23, 7:04am

Meta data:

ID: 93677a62-a6fc-47c8-a7da-0ac72038f1d5
Link: https://api.weather.gov/products/93677a62-a6fc-47c8-a7da-0ac72038f1d5